Location: Burera
(21.3780°N, 81.9534°E)
Time: 00:42:53
(UTC+00:00)

Delta 202 - Pass Details

Date: 13 August 2020
Orbit: 781 x 2713 km, 18.5° (Epoch: 22 September)

Event Time Altitude Azimuth Distance (km) Brightness Sun altitude
Rises 13:19:46 0° 267° (W) 4,916 9.2 -4.4°
Reaches altitude 10° 13:23:33 10° 265° (W) 3,618 8.3 -5.2°
Maximum altitude 13:32:13 71° 183° (S) 1,141 4.4 -7.2°
Drops below altitude 10° 13:38:11 10° 100° (E) 2,542 5.5 -8.5°
Enters shadow 13:38:15 10° 99° (E) 2,565 5.6 -8.5°
